"Pseudo-MPEC" for P116h75

Created 2020 Sep 19 10:07:42 UT using Find_Orb

Click here for an explanation of pseudo-MPECs

 
 Astrometry: 
     P116h75  C2020 09 15seuq4jKqs@c94#oFV;+XOXAstrometryQ\adi\fSQ8J?\O6UQ1rjF51
     P116h75  C2020 09 15yu9F+.+c^;@%Y/;ynPsJTH:/T%[x%0redacted;8%;F0X^(M%aahF51
     P116h75  C2020 09 15#`nKkfx;@GU)U5dS:Nk?i8)vfOUM6x*wlVh3.]-/87d'UA*/:M!xF51
     P116h75  C2020 09 16ORd%ako_vl,,4s:qJdqclick4kM,g1[^qY4#wmeib$e/0KC)e;0iF51
     P116h75  C2020 09 16%'XJ.d7?ZsXR,l/*9tM!yherel0c=.m(IWL(8*R!nDtO=R[IxD-7F51
     P116h75  C2020 09 16?ZmrLW5ie\Lh9xJ,(W-P!'Yr4:u2_)$XcK*6(?YHV+jo)oUeb'DOF51
     P116h75  C2020 09 16S2DNx)WV;u'y1drDfNP0x3%SS+pIfnx?BHX%%5tTps?ZFdFtn1L'F51
     P116h75  C2020 09 1664vP]bD\\$X^\^=KXrB,7,!#o4-Q$g?T=#=;9S?K7U/T[B#(Y4s6F51
     P116h75  C2020 09 16nC$!N)hm]_JT=a?iRORa0Ngg0+FDY7m;HPx7C6vHjQe,J.^y;yciF51
     P116h75  C2020 09 18gPLQx+hk-]:7\+[r[]2H71a6L`To'^IT5_WmG;a^wFsI\VeHforYF52
     P116h75  C2020 09 18h_DOvJi*?qhexplanationCKXEd5l1*Tp[TC*6p_3^DWgt'V$MGCF52
     P116h75  C2020 09 18R%B=:5(yCRZwvehP[McsKt`FUp$/DKSPPumEdvD-($+$CMTXTqQ%F52

Station data:
(F51) Pan-STARRS 1, Haleakala  (N20.707235 W156.255910)  US/Hawaii.
   Observers N. Primak, A. Schultz, S. Watters, J. Thiel, T. Goggia. Measurer
   PS1 Science Consortium. 1.8-m Ritchey-Chrétien + CCD.
(F52) Pan-STARRS 2, Haleakala  (N20.707384 W156.255910)  US/Hawaii. 1.8-m
   Ritchey-Chrétien + CCD.

Orbital elements:  P116h75
   Perihelion 2020 Jul 8.678357 +/- 1.14 TT = 16:16:50 (JD 2459039.178357)
Epoch 2020 Sep 18.0 TT = JDT 2459110.5   Earth MOID: 0.2152   AutoNEOCP
M  32.12895041 +/- 2.3              (J2000 ecliptic)
n   0.45047967 +/- 0.0263           Peri.  302.64895 +/- 1.0
a   1.68533375 +/- 0.0656           Node   349.57486 +/- 0.058
e   0.3458560 +/- 0.022             Incl.   29.57142 +/- 1.0
P   2.19/799.13d           H 23.5   G  0.15   U 10.3  
q 1.10245086 +/- 0.006    Q 2.26821663 +/- 0.13
From 12 observations 2020 Sept. 15-18; mean residual 0".25
Residuals in arcseconds: 
200915 F51  .00   .09+    200916 F51  .26+  .11-    200916 F51  .11-  .04+    
200915 F51  .12-  .00     200916 F51  .24-  .17+    200918 F52  .20+  .34-    
200915 F51  .08+  .14-    200916 F51  .09+  .09+    200918 F52  .58-  .63+    
200916 F51  .04-  .16+    200916 F51  .10+  .27-    200918 F52  .36+  .30-    

Ephemerides (geocentric):
Date (UTC) HH   RA              Dec         delta   r     elong  mag " sig PA
---- -- -- --  -------------   -----------  ------ ------ -----  --- ---- ---
2020 09 19 10  23 06 46.495   +10 49 32.83  .29455 1.2903 164.1 22.1 .264  61
2020 09 19 11  23 06 36.296   +10 52 00.40  .29483 1.2905 164.1 22.1 .269  57
2020 09 19 12  23 06 26.116   +10 54 27.63  .29511 1.2907 164.0 22.1 .274  53
2020 09 19 13  23 06 15.954   +10 56 54.53  .29539 1.2909 163.9 22.1 .281  49
2020 09 19 14  23 06 05.811   +10 59 21.09  .29566 1.2911 163.9 22.1 .290  45
2020 09 19 15  23 05 55.687   +11 01 47.31  .29594 1.2913 163.8 22.1 .300  41
2020 09 19 16  23 05 45.582   +11 04 13.19  .29622 1.2914 163.7 22.1 .311  37
2020 09 19 17  23 05 35.496   +11 06 38.74  .29651 1.2916 163.7 22.1 .323  34
2020 09 19 18  23 05 25.428   +11 09 03.95  .29679 1.2918 163.6 22.1 .336  30
2020 09 19 19  23 05 15.379   +11 11 28.83  .29707 1.2920 163.5 22.1 .351  27
2020 09 19 20  23 05 05.349   +11 13 53.37  .29735 1.2922 163.4 22.2 .367  24
2020 09 19 21  23 04 55.338   +11 16 17.58  .29763 1.2924 163.4 22.2 .384  21
2020 09 19 22  23 04 45.346   +11 18 41.45  .29792 1.2925 163.3 22.2 .403  19
2020 09 19 23  23 04 35.372   +11 21 04.99  .29820 1.2927 163.2 22.2 .422  16
2020 09 20 00  23 04 25.417   +11 23 28.19  .29848 1.2929 163.2 22.2 .443  14
2020 09 20 01  23 04 15.481   +11 25 51.06  .29877 1.2931 163.1 22.2 .464  12
2020 09 20 02  23 04 05.564   +11 28 13.60  .29905 1.2933 163.0 22.2 .486   9
2020 09 20 03  23 03 55.666   +11 30 35.80  .29934 1.2935 163.0 22.2 .510   7
2020 09 20 04  23 03 45.786   +11 32 57.68  .29963 1.2936 162.9 22.2 .534   6
2020 09 20 05  23 03 35.925   +11 35 19.22  .29991 1.2938 162.8 22.2 .559   4
2020 09 20 06  23 03 26.083   +11 37 40.43  .30020 1.2940 162.8 22.2 .586   2
2020 09 20 07  23 03 16.260   +11 40 01.31  .30049 1.2942 162.7 22.2 .613   1
2020 09 20 08  23 03 06.455   +11 42 21.86  .30078 1.2944 162.6 22.2 .641 179
2020 09 20 09  23 02 56.669   +11 44 42.08  .30106 1.2946 162.5 22.2 .669 178
2020 09 20 10  23 02 46.902   +11 47 01.97  .30135 1.2948 162.5 22.2 .699 176
2020 09 20 11  23 02 37.154   +11 49 21.53  .30164 1.2949 162.4 22.2 .729 175
2020 09 20 12  23 02 27.424   +11 51 40.76  .30193 1.2951 162.3 22.2 .761 174
2020 09 20 13  23 02 17.713   +11 53 59.67  .30222 1.2953 162.3 22.2 .793 173
2020 09 20 14  23 02 08.021   +11 56 18.24  .30251 1.2955 162.2 22.2 .826 172
2020 09 20 15  23 01 58.348   +11 58 36.49  .30281 1.2957 162.1 22.2 .860 171
2020 09 20 16  23 01 48.693   +12 00 54.41  .30310 1.2959 162.1 22.2 .894 170
2020 09 20 17  23 01 39.057   +12 03 12.01  .30339 1.2960 162.0 22.2 .929 169
2020 09 20 18  23 01 29.440   +12 05 29.28  .30368 1.2962 161.9 22.2 .966 168
2020 09 20 19  23 01 19.841   +12 07 46.23  .30398 1.2964 161.9 22.3 1.00 167
2020 09 20 20  23 01 10.262   +12 10 02.85  .30427 1.2966 161.8 22.3 1.04 166
2020 09 20 21  23 01 00.701   +12 12 19.14  .30456 1.2968 161.7 22.3 1.08 166
2020 09 20 22  23 00 51.158   +12 14 35.11  .30486 1.2970 161.6 22.3 1.12 165
2020 09 20 23  23 00 41.635   +12 16 50.76  .30515 1.2972 161.6 22.3 1.16 164
2020 09 21 00  23 00 32.130   +12 19 06.09  .30545 1.2973 161.5 22.3 1.20 163
2020 09 21 01  23 00 22.643   +12 21 21.09  .30575 1.2975 161.4 22.3 1.24 163
2020 09 21 02  23 00 13.176   +12 23 35.77  .30604 1.2977 161.4 22.3 1.28 162
2020 09 21 03  23 00 03.727   +12 25 50.13  .30634 1.2979 161.3 22.3 1.33 161
2020 09 21 04  22 59 54.296   +12 28 04.16  .30664 1.2981 161.2 22.3 1.37 161
2020 09 21 05  22 59 44.884   +12 30 17.88  .30693 1.2983 161.2 22.3 1.42 160
2020 09 21 06  22 59 35.491   +12 32 31.28  .30723 1.2985 161.1 22.3 1.46 160
2020 09 21 07  22 59 26.117   +12 34 44.35  .30753 1.2986 161.0 22.3 1.51 159
2020 09 21 08  22 59 16.761   +12 36 57.11  .30783 1.2988 161.0 22.3 1.56 159
2020 09 21 09  22 59 07.424   +12 39 09.55  .30813 1.2990 160.9 22.3 1.60 158